GFSFLT1_prec_precacc12_105.txt.gz
Total_Precipitation_Accumulation
0.00 0.00 0.00 0.00 0.00 0.00 0.00 0.00 0.00 0.00 0.00 0.00 0.00 0.00 0.00 0.00 0.00 0.01 0.04 0.05 0.12 0.28 0.39 0.36 0.24 0.22 0.26 0.18 0.10 0.14 0.17 0.16
0.00 0.00 0.00 0.00 0.00 0.00 0.00 0.00 0.00 0.00 0.00 0.00 0.00 0.01 0.01 0.01 0.01 0.02 0.05 0.09 0.20 0.38 0.50 0.43 0.36 0.23 0.17 0.13 0.09 0.08 0.20 0.20
0.00 0.00 0.00 0.00 0.00 0.00 0.00 0.00 0.00 0.00 0.00 0.00 0.00 0.00 0.00 0.01 0.01 0.03 0.06 0.19 0.25 0.34 0.52 0.47 0.38 0.34 0.34 0.23 0.09 0.07 0.15 0.20
0.00 0.00 0.00 0.00 0.00 0.00 0.00 0.00 0.00 0.00 0.00 0.00 0.00 0.00 0.01 0.01 0.02 0.03 0.03 0.07 0.22 0.14 0.36 0.48 0.40 0.41 0.46 0.36 0.17 0.07 0.07 0.19
0.00 0.00 0.00 0.00 0.00 0.00 0.00 0.01 0.02 0.00 0.00 0.00 0.00 0.00 0.00 0.00 0.01 0.02 0.02 0.02 0.09 0.11 0.13 0.35 0.32 0.38 0.40 0.45 0.39 0.29 0.14 0.12
0.00 0.00 0.00 0.00 0.00 0.00 0.00 0.00 0.04 0.04 0.00 0.00 0.00 0.00 0.00 0.00 0.01 0.02 0.01 0.00 0.01 0.08 0.14 0.26 0.32 0.36 0.34 0.31 0.44 0.38 0.29 0.09
0.00 0.00 0.00 0.00 0.00 0.00 0.00 0.00 0.00 0.01 0.00 0.00 0.00 0.00 0.00 0.00 0.01 0.02 0.01 0.00 0.03 0.08 0.15 0.25 0.33 0.37 0.43 0.35 0.32 0.34 0.20 0.16
0.00 0.00 0.00 0.00 0.00 0.00 0.00 0.00 0.00 0.01 0.00 0.00 0.00 0.00 0.00 0.00 0.01 0.01 0.01 0.01 0.01 0.06 0.10 0.20 0.26 0.38 0.44 0.51 0.44 0.29 0.25 0.18
0.00 0.00 0.00 0.00 0.00 0.00 0.00 0.00 0.00 0.01 0.00 0.00 0.00 0.00 0.00 0.00 0.00 0.01 0.01 0.00 0.01 0.00 0.03 0.08 0.22 0.39 0.38 0.45 0.54 0.35 0.25 0.22
0.00 0.00 0.00 0.00 0.00 0.00 0.00 0.00 0.00 0.01 0.00 0.00 0.01 0.05 0.01 0.00 0.00 0.00 0.01 0.01 0.01 0.00 0.00 0.04 0.14 0.24 0.31 0.31 0.45 0.43 0.34 0.29
0.00 0.00 0.00 0.00 0.00 0.00 0.00 0.00 0.00 0.01 0.01 0.02 0.05 0.07 0.05 0.02 0.00 0.00 0.01 0.01 0.01 0.00 0.00 0.02 0.05 0.11 0.21 0.18 0.20 0.30 0.31 0.24
0.00 0.00 0.00 0.00 0.01 0.02 0.04 0.03 0.01 0.02 0.03 0.05 0.05 0.06 0.05 0.02 0.00 0.01 0.00 0.01 0.00 0.01 0.00 0.02 0.04 0.03 0.07 0.13 0.11 0.13 0.13 0.12
0.03 0.02 0.02 0.02 0.04 0.07 0.07 0.05 0.04 0.04 0.05 0.05 0.04 0.04 0.04 0.01 0.00 0.01 0.01 0.01 0.01 0.01 0.01 0.00 0.00 0.01 0.01 0.03 0.08 0.07 0.09 0.07
0.05 0.05 0.04 0.07 0.09 0.09 0.08 0.10 0.10 0.13 0.09 0.07 0.03 0.06 0.06 0.04 0.02 0.02 0.01 0.01 0.01 0.02 0.03 0.01 0.01 0.01 0.04 0.03 0.03 0.04 0.04 0.07
0.09 0.11 0.09 0.10 0.11 0.11 0.15 0.18 0.18 0.25 0.23 0.15 0.12 0.13 0.11 0.06 0.03 0.03 0.02 0.02 0.02 0.02 0.03 0.03 0.02 0.01 0.02 0.05 0.05 0.04 0.02 0.02
0.22 0.16 0.16 0.14 0.15 0.16 0.18 0.23 0.37 0.43 0.37 0.34 0.25 0.16 0.23 0.13 0.09 0.05 0.04 0.03 0.04 0.03 0.04 0.05 0.04 0.03 0.03 0.04 0.04 0.05 0.04 0.03
0.63 0.52 0.32 0.31 0.30 0.29 0.32 0.32 0.33 0.38 0.38 0.35 0.35 0.25 0.17 0.14 0.12 0.07 0.06 0.03 0.03 0.04 0.04 0.03 0.03 0.02 0.06 0.03 0.02 0.02 0.03 0.06
0.84 0.84 0.61 0.51 0.55 0.50 0.54 0.52 0.46 0.40 0.37 0.44 0.41 0.31 0.27 0.19 0.15 0.10 0.12 0.06 0.06 0.08 0.09 0.09 0.09 0.08 0.12 0.04 0.04 0.02 0.06 0.09
0.61 0.91 0.77 0.59 0.58 0.56 0.56 0.56 0.55 0.62 0.63 0.74 0.72 0.54 0.39 0.29 0.30 0.22 0.16 0.14 0.09 0.12 0.14 0.11 0.11 0.14 0.14 0.08 0.10 0.05 0.09 0.12

GFSFLT1_prec_precacc12_108.txt.gz
Total_Precipitation_Accumulation
0.00 0.00 0.00 0.00 0.00 0.00 0.00 0.00 0.00 0.00 0.00 0.00 0.00 0.00 0.00 0.00 0.00 0.00 0.01 0.02 0.01 0.05 0.11 0.20 0.12 0.12 0.13 0.11 0.09 0.13 0.16 0.18
0.00 0.00 0.00 0.00 0.00 0.00 0.00 0.00 0.00 0.00 0.00 0.00 0.00 0.00 0.00 0.00 0.01 0.01 0.02 0.04 0.05 0.11 0.20 0.23 0.21 0.13 0.07 0.09 0.10 0.11 0.21 0.20
0.00 0.00 0.00 0.00 0.00 0.00 0.00 0.00 0.00 0.00 0.00 0.00 0.00 0.00 0.00 0.00 0.01 0.01 0.03 0.04 0.03 0.10 0.29 0.30 0.24 0.24 0.25 0.20 0.08 0.07 0.15 0.20
0.00 0.00 0.00 0.00 0.00 0.00 0.00 0.00 0.00 0.00 0.00 0.00 0.00 0.01 0.00 0.00 0.01 0.01 0.01 0.01 0.02 0.05 0.18 0.36 0.30 0.32 0.42 0.36 0.17 0.07 0.07 0.19
0.00 0.00 0.00 0.00 0.00 0.00 0.00 0.02 0.04 0.02 0.03 0.01 0.00 0.00 0.00 0.00 0.00 0.01 0.01 0.00 0.01 0.01 0.04 0.24 0.25 0.31 0.38 0.46 0.39 0.31 0.19 0.19
0.00 0.00 0.00 0.00 0.00 0.00 0.00 0.01 0.07 0.10 0.07 0.05 0.04 0.01 0.00 0.00 0.00 0.01 0.01 0.00 0.00 0.00 0.03 0.20 0.28 0.34 0.34 0.32 0.46 0.41 0.39 0.25
0.00 0.00 0.00 0.00 0.00 0.00 0.00 0.00 0.00 0.02 0.02 0.01 0.01 0.02 0.00 0.00 0.00 0.01 0.01 0.00 0.00 0.01 0.04 0.17 0.29 0.34 0.42 0.36 0.35 0.41 0.35 0.39
0.00 0.00 0.00 0.00 0.00 0.00 0.00 0.00 0.00 0.01 0.01 0.00 0.00 0.03 0.00 0.00 0.00 0.00 0.01 0.00 0.00 0.01 0.01 0.09 0.18 0.32 0.39 0.48 0.46 0.39 0.52 0.46
0.00 0.00 0.00 0.00 0.00 0.00 0.00 0.00 0.00 0.01 0.00 0.00 0.00 0.02 0.02 0.00 0.00 0.00 0.00 0.00 0.00 0.00 0.02 0.04 0.15 0.29 0.33 0.43 0.56 0.48 0.44 0.57
0.00 0.00 0.00 0.00 0.00 0.00 0.00 0.00 0.00 0.01 0.00 0.00 0.01 0.07 0.04 0.01 0.00 0.00 0.01 0.01 0.01 0.00 0.00 0.02 0.08 0.10 0.20 0.29 0.46 0.51 0.49 0.43
0.00 0.00 0.00 0.00 0.00 0.00 0.00 0.00 0.00 0.00 0.01 0.03 0.08 0.14 0.13 0.07 0.01 0.00 0.01 0.02 0.00 0.00 0.00 0.00 0.02 0.05 0.09 0.16 0.20 0.31 0.46 0.42
0.00 0.00 0.00 0.00 0.01 0.02 0.05 0.03 0.01 0.02 0.04 0.07 0.10 0.13 0.12 0.10 0.06 0.01 0.01 0.01 0.00 0.01 0.00 0.00 0.01 0.02 0.05 0.12 0.11 0.13 0.18 0.37
0.00 0.00 0.00 0.01 0.03 0.07 0.09 0.09 0.06 0.04 0.05 0.06 0.08 0.16 0.13 0.09 0.07 0.03 0.02 0.01 0.01 0.01 0.00 0.00 0.00 0.01 0.02 0.05 0.08 0.09 0.13 0.15
0.00 0.00 0.01 0.04 0.07 0.08 0.10 0.15 0.15 0.13 0.07 0.05 0.05 0.10 0.12 0.10 0.07 0.06 0.04 0.02 0.00 0.01 0.03 0.01 0.01 0.01 0.03 0.03 0.03 0.04 0.04 0.12
0.00 0.00 0.03 0.06 0.09 0.10 0.15 0.19 0.19 0.20 0.24 0.15 0.11 0.16 0.17 0.14 0.07 0.07 0.04 0.03 0.02 0.02 0.03 0.03 0.02 0.01 0.02 0.04 0.04 0.04 0.02 0.02
0.03 0.05 0.06 0.08 0.12 0.13 0.14 0.18 0.29 0.34 0.31 0.28 0.22 0.19 0.32 0.29 0.28 0.19 0.08 0.06 0.05 0.03 0.04 0.05 0.05 0.04 0.04 0.05 0.05 0.06 0.05 0.04
0.13 0.17 0.17 0.19 0.19 0.23 0.24 0.22 0.22 0.27 0.34 0.39 0.39 0.30 0.27 0.35 0.34 0.25 0.13 0.06 0.05 0.06 0.05 0.02 0.02 0.03 0.10 0.06 0.04 0.03 0.05 0.09
0.21 0.36 0.41 0.42 0.43 0.40 0.41 0.40 0.35 0.32 0.31 0.37 0.43 0.38 0.33 0.30 0.42 0.34 0.27 0.12 0.08 0.09 0.09 0.09 0.06 0.04 0.09 0.06 0.08 0.04 0.08 0.11
0.11 0.29 0.49 0.47 0.48 0.51 0.51 0.51 0.48 0.55 0.54 0.51 0.57 0.52 0.44 0.36 0.46 0.45 0.32 0.21 0.10 0.12 0.14 0.11 0.10 0.13 0.13 0.10 0.13 0.07 0.12 0.12

GFSFLT1_prec_precacc12_111.txt.gz
Total_Precipitation_Accumulation
0.00 0.00 0.00 0.00 0.00 0.00 0.00 0.00 0.00 0.00 0.00 0.00 0.00 0.00 0.00 0.00 0.00 0.00 0.00 0.00 0.00 0.02 0.02 0.07 0.08 0.08 0.11 0.10 0.07 0.04 0.06 0.15
0.00 0.00 0.00 0.00 0.00 0.00 0.00 0.00 0.00 0.00 0.00 0.00 0.00 0.00 0.00 0.00 0.00 0.00 0.00 0.00 0.01 0.03 0.02 0.01 0.04 0.03 0.02 0.04 0.09 0.06 0.11 0.16
0.00 0.00 0.00 0.00 0.00 0.00 0.00 0.00 0.00 0.00 0.00 0.00 0.00 0.00 0.00 0.00 0.00 0.00 0.00 0.00 0.01 0.03 0.02 0.00 0.04 0.09 0.08 0.05 0.05 0.03 0.09 0.17
0.00 0.00 0.00 0.00 0.00 0.00 0.00 0.00 0.00 0.00 0.00 0.01 0.00 0.01 0.02 0.02 0.00 0.00 0.00 0.00 0.01 0.01 0.00 0.03 0.13 0.18 0.28 0.22 0.12 0.05 0.05 0.17
0.00 0.00 0.00 0.00 0.00 0.00 0.00 0.02 0.04 0.02 0.07 0.04 0.03 0.01 0.00 0.00 0.00 0.00 0.00 0.00 0.00 0.00 0.00 0.04 0.11 0.16 0.22 0.35 0.35 0.29 0.18 0.20
0.00 0.00 0.00 0.00 0.00 0.00 0.00 0.01 0.08 0.11 0.09 0.09 0.13 0.04 0.03 0.01 0.02 0.01 0.00 0.00 0.00 0.00 0.00 0.01 0.08 0.16 0.17 0.23 0.44 0.41 0.39 0.26
0.00 0.00 0.00 0.00 0.00 0.00 0.00 0.00 0.01 0.04 0.06 0.05 0.03 0.03 0.01 0.01 0.01 0.01 0.00 0.00 0.00 0.00 0.01 0.02 0.08 0.15 0.27 0.30 0.33 0.40 0.36 0.40
0.00 0.00 0.00 0.00 0.00 0.00 0.00 0.00 0.00 0.01 0.01 0.02 0.04 0.09 0.01 0.00 0.00 0.00 0.00 0.00 0.00 0.00 0.00 0.01 0.06 0.16 0.28 0.44 0.45 0.38 0.52 0.48
0.00 0.00 0.00 0.00 0.00 0.00 0.00 0.00 0.00 0.00 0.00 0.00 0.03 0.05 0.04 0.03 0.00 0.00 0.00 0.00 0.00 0.00 0.00 0.00 0.04 0.14 0.23 0.35 0.49 0.43 0.41 0.63
0.00 0.00 0.00 0.00 0.00 0.00 0.00 0.00 0.00 0.00 0.00 0.00 0.01 0.07 0.04 0.02 0.03 0.03 0.02 0.00 0.02 0.01 0.00 0.00 0.01 0.05 0.12 0.20 0.39 0.45 0.43 0.43
0.01 0.00 0.00 0.00 0.00 0.00 0.00 0.00 0.00 0.00 0.00 0.03 0.08 0.14 0.14 0.10 0.04 0.02 0.04 0.04 0.02 0.01 0.00 0.00 0.00 0.02 0.04 0.09 0.19 0.32 0.47 0.44
0.07 0.02 0.00 0.00 0.01 0.02 0.05 0.03 0.00 0.01 0.04 0.08 0.10 0.13 0.14 0.13 0.10 0.06 0.05 0.06 0.04 0.03 0.00 0.00 0.00 0.01 0.02 0.03 0.06 0.14 0.19 0.39
0.02 0.02 0.00 0.01 0.02 0.05 0.09 0.08 0.06 0.04 0.06 0.09 0.11 0.18 0.15 0.13 0.12 0.07 0.07 0.07 0.07 0.05 0.01 0.00 0.00 0.01 0.01 0.03 0.05 0.09 0.14 0.15
0.00 0.00 0.00 0.01 0.02 0.06 0.08 0.14 0.16 0.13 0.08 0.08 0.11 0.13 0.14 0.12 0.12 0.12 0.11 0.08 0.06 0.06 0.04 0.01 0.02 0.01 0.04 0.04 0.03 0.04 0.04 0.13
0.00 0.00 0.00 0.02 0.02 0.03 0.10 0.14 0.16 0.18 0.20 0.14 0.10 0.18 0.19 0.15 0.09 0.09 0.08 0.07 0.04 0.03 0.04 0.03 0.03 0.01 0.02 0.04 0.04 0.04 0.02 0.02
0.00 0.00 0.00 0.02 0.05 0.05 0.06 0.12 0.21 0.25 0.23 0.21 0.17 0.17 0.33 0.31 0.31 0.25 0.14 0.11 0.08 0.06 0.07 0.05 0.03 0.01 0.04 0.05 0.05 0.06 0.05 0.04
0.00 0.00 0.01 0.06 0.09 0.13 0.15 0.14 0.15 0.18 0.26 0.32 0.31 0.26 0.28 0.36 0.36 0.35 0.31 0.22 0.24 0.16 0.07 0.03 0.02 0.04 0.12 0.07 0.05 0.03 0.06 0.12
0.00 0.01 0.05 0.14 0.21 0.24 0.27 0.29 0.27 0.25 0.21 0.26 0.32 0.31 0.35 0.36 0.50 0.57 0.58 0.44 0.38 0.30 0.17 0.11 0.06 0.04 0.08 0.07 0.10 0.05 0.10 0.12
0.00 0.00 0.02 0.14 0.25 0.32 0.33 0.33 0.34 0.37 0.35 0.30 0.37 0.36 0.35 0.34 0.42 0.51 0.70 0.90 0.66 0.36 0.22 0.11 0.09 0.11 0.10 0.09 0.13 0.07 0.12 0.10

GFSFLT1_prec_precacc12_114.txt.gz
Total_Precipitation_Accumulation
0.00 0.00 0.00 0.00 0.00 0.00 0.00 0.00 0.00 0.00 0.00 0.01 0.00 0.00 0.00 0.00 0.00 0.00 0.00 0.00 0.00 0.00 0.00 0.00 0.01 0.03 0.08 0.08 0.06 0.03 0.02 0.04
0.00 0.00 0.00 0.00 0.00 0.00 0.00 0.00 0.00 0.00 0.00 0.00 0.00 0.00 0.00 0.00 0.00 0.00 0.00 0.00 0.00 0.00 0.00 0.00 0.00 0.01 0.01 0.03 0.08 0.06 0.03 0.04
0.00 0.00 0.00 0.00 0.00 0.00 0.00 0.00 0.00 0.00 0.00 0.02 0.01 0.00 0.00 0.00 0.00 0.00 0.00 0.00 0.00 0.00 0.00 0.00 0.00 0.00 0.02 0.03 0.04 0.02 0.02 0.06
0.00 0.00 0.00 0.00 0.00 0.00 0.00 0.00 0.00 0.02 0.03 0.03 0.03 0.02 0.02 0.02 0.00 0.00 0.00 0.00 0.00 0.00 0.00 0.00 0.00 0.00 0.01 0.06 0.09 0.05 0.03 0.06
0.00 0.00 0.00 0.00 0.00 0.00 0.00 0.02 0.04 0.02 0.08 0.05 0.05 0.02 0.00 0.00 0.00 0.00 0.00 0.00 0.00 0.00 0.00 0.00 0.00 0.01 0.03 0.16 0.26 0.25 0.16 0.15
0.00 0.00 0.00 0.00 0.00 0.00 0.00 0.01 0.08 0.11 0.09 0.10 0.13 0.06 0.06 0.02 0.03 0.02 0.03 0.01 0.00 0.00 0.00 0.00 0.00 0.01 0.05 0.12 0.30 0.33 0.35 0.24
0.00 0.00 0.00 0.00 0.00 0.00 0.00 0.00 0.01 0.05 0.07 0.07 0.04 0.03 0.01 0.01 0.01 0.01 0.01 0.01 0.00 0.00 0.01 0.01 0.01 0.01 0.07 0.17 0.21 0.33 0.31 0.34
0.00 0.00 0.00 0.00 0.00 0.00 0.00 0.00 0.00 0.01 0.02 0.05 0.06 0.10 0.02 0.01 0.01 0.00 0.00 0.00 0.00 0.00 0.00 0.01 0.01 0.02 0.08 0.21 0.29 0.30 0.43 0.40
0.01 0.00 0.00 0.00 0.00 0.00 0.00 0.00 0.00 0.01 0.01 0.03 0.04 0.06 0.04 0.03 0.00 0.00 0.01 0.00 0.00 0.00 0.00 0.00 0.00 0.01 0.05 0.17 0.32 0.34 0.33 0.55
0.02 0.01 0.00 0.00 0.00 0.00 0.00 0.00 0.00 0.00 0.00 0.01 0.02 0.07 0.05 0.03 0.05 0.08 0.07 0.06 0.04 0.04 0.03 0.00 0.00 0.01 0.02 0.09 0.24 0.30 0.32 0.35
0.02 0.02 0.01 0.00 0.00 0.00 0.00 0.00 0.00 0.00 0.00 0.03 0.07 0.14 0.14 0.10 0.05 0.03 0.05 0.08 0.08 0.05 0.04 0.02 0.01 0.01 0.01 0.02 0.11 0.24 0.38 0.37
0.09 0.05 0.05 0.01 0.01 0.02 0.02 0.02 0.00 0.01 0.04 0.07 0.09 0.12 0.14 0.14 0.10 0.06 0.05 0.07 0.06 0.04 0.04 0.02 0.02 0.01 0.01 0.02 0.04 0.11 0.18 0.38
0.19 0.14 0.08 0.07 0.03 0.03 0.05 0.06 0.05 0.04 0.06 0.07 0.10 0.17 0.15 0.13 0.13 0.08 0.08 0.08 0.10 0.10 0.08 0.04 0.02 0.04 0.03 0.03 0.03 0.04 0.07 0.12
0.10 0.14 0.05 0.02 0.01 0.04 0.05 0.07 0.11 0.11 0.07 0.07 0.10 0.13 0.15 0.14 0.14 0.14 0.13 0.11 0.09 0.09 0.08 0.05 0.04 0.05 0.07 0.03 0.03 0.03 0.03 0.11
0.00 0.01 0.00 0.00 0.00 0.02 0.06 0.08 0.10 0.11 0.17 0.11 0.07 0.16 0.20 0.18 0.12 0.11 0.12 0.11 0.09 0.07 0.08 0.09 0.08 0.04 0.03 0.03 0.03 0.04 0.02 0.02
0.00 0.00 0.00 0.00 0.01 0.03 0.03 0.06 0.12 0.14 0.14 0.13 0.10 0.12 0.30 0.30 0.31 0.25 0.14 0.13 0.11 0.09 0.09 0.08 0.08 0.09 0.10 0.07 0.05 0.06 0.05 0.04
0.01 0.00 0.00 0.00 0.00 0.03 0.08 0.08 0.05 0.06 0.15 0.23 0.22 0.17 0.21 0.33 0.35 0.34 0.30 0.23 0.25 0.23 0.17 0.16 0.16 0.14 0.24 0.18 0.06 0.03 0.06 0.11
0.01 0.01 0.01 0.01 0.01 0.03 0.11 0.16 0.15 0.13 0.09 0.14 0.22 0.22 0.29 0.33 0.48 0.55 0.57 0.48 0.48 0.46 0.48 0.44 0.28 0.17 0.20 0.22 0.16 0.05 0.08 0.09
0.01 0.01 0.01 0.01 0.01 0.02 0.10 0.15 0.18 0.23 0.21 0.14 0.20 0.25 0.28 0.29 0.38 0.47 0.70 0.93 0.73 0.56 0.55 0.50 0.51 0.42 0.27 0.23 0.19 0.08 0.12 0.12

GFSFLT1_prec_precacc12_117.txt.gz
Total_Precipitation_Accumulation
0.00 0.00 0.00 0.00 0.00 0.00 0.00 0.00 0.00 0.00 0.00 0.01 0.00 0.00 0.00 0.00 0.00 0.00 0.00 0.00 0.00 0.00 0.00 0.00 0.00 0.01 0.01 0.00 0.02 0.02 0.02 0.03
0.00 0.00 0.00 0.00 0.00 0.00 0.00 0.00 0.00 0.00 0.00 0.00 0.00 0.01 0.00 0.00 0.00 0.00 0.00 0.00 0.00 0.00 0.00 0.00 0.00 0.01 0.00 0.01 0.03 0.05 0.03 0.02
0.00 0.00 0.00 0.00 0.00 0.00 0.00 0.01 0.00 0.00 0.00 0.09 0.07 0.04 0.00 0.00 0.00 0.00 0.00 0.00 0.00 0.00 0.00 0.00 0.00 0.00 0.01 0.01 0.01 0.01 0.01 0.03
0.00 0.00 0.00 0.00 0.00 0.00 0.00 0.00 0.01 0.07 0.16 0.15 0.09 0.04 0.03 0.02 0.00 0.00 0.00 0.00 0.00 0.00 0.00 0.00 0.00 0.00 0.01 0.01 0.01 0.02 0.02 0.03
0.00 0.00 0.00 0.00 0.00 0.00 0.00 0.00 0.05 0.14 0.27 0.07 0.10 0.04 0.01 0.00 0.00 0.00 0.00 0.00 0.00 0.00 0.00 0.00 0.00 0.00 0.01 0.01 0.02 0.04 0.09 0.10
0.01 0.00 0.00 0.00 0.00 0.00 0.00 0.01 0.04 0.09 0.11 0.11 0.14 0.07 0.08 0.02 0.03 0.02 0.03 0.02 0.00 0.00 0.00 0.00 0.00 0.00 0.01 0.02 0.03 0.07 0.14 0.20
0.02 0.00 0.00 0.00 0.00 0.00 0.00 0.00 0.01 0.04 0.07 0.08 0.05 0.04 0.02 0.02 0.01 0.01 0.01 0.01 0.00 0.00 0.01 0.01 0.01 0.01 0.01 0.02 0.04 0.10 0.19 0.27
0.04 0.01 0.00 0.00 0.00 0.00 0.00 0.00 0.00 0.00 0.02 0.05 0.07 0.11 0.03 0.01 0.01 0.00 0.00 0.00 0.00 0.00 0.00 0.01 0.01 0.01 0.01 0.02 0.06 0.15 0.33 0.34
0.05 0.02 0.00 0.00 0.00 0.00 0.00 0.00 0.00 0.00 0.01 0.04 0.05 0.07 0.06 0.05 0.01 0.02 0.06 0.02 0.01 0.01 0.00 0.01 0.02 0.02 0.02 0.03 0.08 0.18 0.24 0.48
0.03 0.03 0.01 0.01 0.00 0.00 0.00 0.00 0.00 0.00 0.00 0.02 0.02 0.04 0.05 0.06 0.11 0.16 0.11 0.11 0.10 0.11 0.09 0.02 0.02 0.01 0.01 0.02 0.05 0.12 0.18 0.21
0.05 0.03 0.02 0.01 0.01 0.00 0.00 0.00 0.00 0.00 0.00 0.01 0.03 0.08 0.11 0.13 0.14 0.10 0.16 0.15 0.17 0.18 0.16 0.08 0.03 0.05 0.03 0.02 0.03 0.04 0.17 0.23
0.21 0.08 0.06 0.02 0.00 0.01 0.02 0.01 0.00 0.01 0.01 0.04 0.05 0.07 0.08 0.12 0.11 0.08 0.11 0.14 0.16 0.13 0.17 0.13 0.09 0.07 0.03 0.03 0.03 0.04 0.08 0.29
0.36 0.23 0.10 0.09 0.04 0.00 0.03 0.05 0.03 0.01 0.03 0.05 0.08 0.14 0.11 0.12 0.13 0.08 0.08 0.09 0.13 0.16 0.16 0.13 0.11 0.09 0.08 0.06 0.03 0.04 0.06 0.09
0.46 0.37 0.17 0.07 0.07 0.03 0.02 0.06 0.08 0.04 0.04 0.06 0.09 0.09 0.10 0.11 0.13 0.14 0.13 0.12 0.11 0.11 0.10 0.08 0.06 0.08 0.09 0.06 0.04 0.02 0.01 0.06
0.22 0.15 0.17 0.06 0.03 0.04 0.03 0.04 0.05 0.04 0.07 0.08 0.05 0.08 0.11 0.14 0.11 0.10 0.11 0.12 0.12 0.11 0.12 0.12 0.11 0.08 0.07 0.06 0.05 0.04 0.03 0.02
0.03 0.03 0.02 0.01 0.00 0.00 0.00 0.02 0.04 0.04 0.03 0.06 0.05 0.07 0.12 0.20 0.27 0.24 0.13 0.12 0.12 0.12 0.13 0.12 0.13 0.17 0.20 0.16 0.13 0.11 0.07 0.02
0.01 0.00 0.00 0.00 0.00 0.00 0.00 0.01 0.02 0.02 0.05 0.14 0.14 0.13 0.15 0.24 0.27 0.29 0.27 0.22 0.24 0.21 0.16 0.16 0.18 0.16 0.35 0.31 0.25 0.22 0.19 0.15
0.02 0.02 0.02 0.02 0.01 0.00 0.01 0.00 0.04 0.04 0.02 0.02 0.09 0.14 0.21 0.26 0.39 0.51 0.49 0.45 0.44 0.42 0.45 0.42 0.28 0.20 0.33 0.35 0.34 0.23 0.24 0.21
0.01 0.02 0.02 0.02 0.01 0.00 0.00 0.00 0.02 0.05 0.03 0.03 0.04 0.11 0.15 0.20 0.27 0.39 0.64 0.85 0.68 0.49 0.48 0.50 0.54 0.52 0.46 0.45 0.53 0.46 0.42 0.28

GFSFLT1_prec_precacc12_120.txt.gz
Total_Precipitation_Accumulation
0.00 0.00 0.00 0.00 0.00 0.00 0.00 0.00 0.00 0.00 0.00 0.01 0.00 0.00 0.00 0.00 0.00 0.00 0.00 0.00 0.00 0.00 0.00 0.00 0.00 0.01 0.01 0.00 0.00 0.00 0.00 0.02
0.00 0.00 0.00 0.00 0.00 0.00 0.00 0.00 0.00 0.00 0.00 0.00 0.00 0.02 0.00 0.00 0.00 0.00 0.00 0.00 0.00 0.00 0.00 0.00 0.00 0.00 0.00 0.00 0.00 0.01 0.01 0.02
0.00 0.00 0.00 0.00 0.00 0.00 0.00 0.01 0.00 0.01 0.00 0.09 0.07 0.04 0.00 0.00 0.00 0.00 0.00 0.00 0.00 0.00 0.00 0.00 0.00 0.00 0.00 0.01 0.01 0.01 0.01 0.03
0.00 0.00 0.00 0.00 0.00 0.00 0.00 0.01 0.01 0.07 0.16 0.15 0.09 0.04 0.03 0.02 0.00 0.00 0.00 0.00 0.00 0.00 0.00 0.00 0.00 0.00 0.00 0.01 0.01 0.02 0.02 0.02
0.00 0.00 0.00 0.00 0.00 0.00 0.00 0.00 0.04 0.14 0.25 0.06 0.10 0.04 0.01 0.00 0.00 0.00 0.01 0.00 0.00 0.00 0.00 0.00 0.00 0.00 0.01 0.01 0.01 0.02 0.04 0.03
0.02 0.00 0.00 0.00 0.00 0.00 0.00 0.01 0.04 0.09 0.07 0.08 0.13 0.07 0.08 0.02 0.03 0.03 0.04 0.03 0.00 0.00 0.00 0.00 0.00 0.00 0.01 0.01 0.01 0.04 0.05 0.04
0.08 0.06 0.04 0.02 0.01 0.00 0.00 0.01 0.03 0.16 0.17 0.19 0.19 0.17 0.04 0.02 0.02 0.01 0.01 0.01 0.01 0.00 0.00 0.01 0.00 0.01 0.00 0.01 0.01 0.03 0.04 0.05
0.11 0.11 0.10 0.10 0.06 0.03 0.01 0.01 0.02 0.09 0.17 0.26 0.19 0.28 0.15 0.02 0.02 0.01 0.01 0.02 0.01 0.01 0.01 0.00 0.01 0.01 0.01 0.01 0.02 0.03 0.05 0.06
0.16 0.20 0.09 0.11 0.08 0.04 0.03 0.01 0.01 0.02 0.06 0.15 0.11 0.14 0.06 0.05 0.02 0.03 0.06 0.02 0.01 0.03 0.07 0.09 0.07 0.04 0.02 0.02 0.03 0.03 0.04 0.12
0.15 0.14 0.09 0.08 0.08 0.05 0.10 0.05 0.01 0.01 0.00 0.03 0.03 0.03 0.03 0.07 0.12 0.17 0.13 0.13 0.13 0.16 0.19 0.13 0.10 0.09 0.06 0.04 0.03 0.03 0.04 0.09
0.12 0.09 0.07 0.06 0.06 0.04 0.05 0.05 0.03 0.01 0.00 0.00 0.00 0.01 0.04 0.08 0.16 0.14 0.20 0.18 0.22 0.26 0.27 0.19 0.08 0.22 0.27 0.19 0.11 0.09 0.07 0.05
0.32 0.15 0.07 0.02 0.02 0.02 0.03 0.02 0.01 0.00 0.01 0.01 0.00 0.00 0.02 0.05 0.07 0.11 0.16 0.20 0.24 0.23 0.28 0.24 0.13 0.14 0.23 0.20 0.11 0.06 0.04 0.04
0.57 0.36 0.16 0.10 0.04 0.00 0.01 0.03 0.03 0.02 0.02 0.03 0.03 0.03 0.03 0.04 0.06 0.06 0.08 0.12 0.21 0.25 0.19 0.17 0.14 0.12 0.11 0.11 0.08 0.05 0.04 0.04
0.66 0.57 0.33 0.15 0.10 0.04 0.00 0.00 0.02 0.03 0.03 0.04 0.07 0.05 0.04 0.04 0.07 0.09 0.09 0.11 0.11 0.15 0.15 0.12 0.11 0.12 0.15 0.11 0.08 0.05 0.02 0.03
0.44 0.35 0.35 0.17 0.12 0.08 0.03 0.00 0.01 0.03 0.02 0.02 0.03 0.05 0.05 0.05 0.06 0.06 0.09 0.11 0.11 0.10 0.12 0.12 0.13 0.10 0.09 0.08 0.07 0.06 0.04 0.03
0.15 0.16 0.23 0.18 0.08 0.02 0.01 0.01 0.00 0.01 0.01 0.00 0.01 0.02 0.03 0.04 0.06 0.10 0.08 0.09 0.10 0.12 0.14 0.15 0.15 0.19 0.22 0.17 0.13 0.12 0.08 0.08
0.01 0.02 0.04 0.07 0.04 0.02 0.00 0.00 0.00 0.00 0.01 0.01 0.01 0.04 0.04 0.03 0.04 0.11 0.19 0.18 0.21 0.20 0.15 0.18 0.20 0.18 0.38 0.31 0.25 0.22 0.25 0.35
0.02 0.03 0.03 0.03 0.02 0.00 0.01 0.00 0.00 0.00 0.00 0.00 0.00 0.01 0.06 0.09 0.10 0.25 0.34 0.38 0.42 0.39 0.42 0.39 0.26 0.19 0.33 0.32 0.30 0.23 0.24 0.31
0.02 0.02 0.03 0.02 0.01 0.00 0.00 0.00 0.00 0.00 0.00 0.00 0.00 0.00 0.01 0.04 0.05 0.15 0.47 0.77 0.67 0.49 0.47 0.48 0.52 0.49 0.44 0.42 0.49 0.44 0.42 0.35

GFSFLT1_prec_precacc12_123.txt.gz
Total_Precipitation_Accumulation
0.00 0.00 0.00 0.00 0.00 0.00 0.00 0.00 0.00 0.01 0.05 0.02 0.00 0.00 0.00 0.00 0.00 0.00 0.00 0.00 0.00 0.00 0.00 0.00 0.00 0.01 0.01 0.00 0.00 0.00 0.01 0.01
0.00 0.00 0.00 0.00 0.00 0.00 0.00 0.00 0.00 0.03 0.09 0.05 0.01 0.02 0.00 0.00 0.00 0.00 0.00 0.00 0.00 0.00 0.00 0.00 0.00 0.01 0.01 0.00 0.00 0.00 0.01 0.02
0.00 0.00 0.00 0.00 0.00 0.00 0.00 0.01 0.00 0.01 0.02 0.13 0.10 0.04 0.00 0.00 0.00 0.00 0.00 0.00 0.00 0.00 0.00 0.00 0.00 0.00 0.01 0.01 0.01 0.01 0.01 0.02
0.00 0.00 0.00 0.00 0.00 0.00 0.00 0.01 0.01 0.07 0.15 0.16 0.15 0.05 0.01 0.00 0.00 0.00 0.00 0.00 0.00 0.00 0.00 0.00 0.00 0.00 0.00 0.01 0.00 0.01 0.02 0.02
0.01 0.00 0.00 0.00 0.00 0.00 0.00 0.00 0.04 0.15 0.22 0.05 0.13 0.06 0.01 0.00 0.00 0.00 0.01 0.00 0.00 0.00 0.00 0.00 0.00 0.00 0.00 0.00 0.01 0.02 0.02 0.02
0.04 0.02 0.01 0.00 0.00 0.00 0.00 0.00 0.04 0.11 0.14 0.08 0.11 0.11 0.06 0.01 0.01 0.01 0.04 0.03 0.00 0.00 0.00 0.00 0.00 0.00 0.00 0.00 0.00 0.02 0.02 0.02
0.10 0.10 0.08 0.06 0.04 0.02 0.01 0.01 0.03 0.17 0.22 0.28 0.29 0.33 0.19 0.09 0.02 0.01 0.01 0.01 0.01 0.00 0.00 0.00 0.00 0.00 0.00 0.01 0.01 0.01 0.02 0.02
0.13 0.18 0.25 0.20 0.16 0.13 0.06 0.03 0.09 0.16 0.34 0.42 0.34 0.57 0.73 0.55 0.33 0.11 0.03 0.05 0.01 0.01 0.01 0.01 0.01 0.01 0.01 0.01 0.02 0.02 0.03 0.03
0.26 0.54 0.31 0.23 0.24 0.26 0.17 0.07 0.12 0.17 0.27 0.40 0.41 0.38 0.43 0.48 0.71 0.72 0.16 0.04 0.02 0.04 0.09 0.10 0.08 0.05 0.03 0.03 0.03 0.03 0.03 0.04
0.40 0.40 0.21 0.20 0.39 0.32 0.31 0.18 0.12 0.18 0.17 0.25 0.36 0.30 0.29 0.47 0.31 0.47 0.26 0.15 0.13 0.17 0.22 0.17 0.14 0.18 0.16 0.13 0.06 0.05 0.05 0.06
0.35 0.51 0.20 0.16 0.33 0.14 0.18 0.20 0.13 0.12 0.16 0.16 0.21 0.21 0.24 0.42 0.46 0.26 0.21 0.17 0.22 0.27 0.30 0.23 0.14 0.30 0.39 0.27 0.22 0.19 0.15 0.09
0.39 0.36 0.24 0.13 0.13 0.13 0.17 0.15 0.12 0.06 0.06 0.07 0.09 0.16 0.21 0.39 0.38 0.19 0.17 0.18 0.23 0.25 0.32 0.29 0.16 0.17 0.31 0.31 0.24 0.17 0.15 0.15
0.70 0.46 0.30 0.20 0.12 0.07 0.21 0.30 0.25 0.16 0.03 0.00 0.01 0.03 0.16 0.12 0.12 0.07 0.06 0.09 0.18 0.24 0.22 0.19 0.16 0.14 0.16 0.15 0.16 0.13 0.07 0.04
0.86 0.67 0.40 0.22 0.15 0.09 0.10 0.16 0.28 0.31 0.13 0.02 0.01 0.02 0.02 0.03 0.02 0.02 0.03 0.05 0.06 0.11 0.16 0.15 0.14 0.14 0.16 0.13 0.09 0.08 0.07 0.06
0.61 0.57 0.49 0.29 0.19 0.12 0.05 0.01 0.04 0.06 0.05 0.02 0.01 0.02 0.03 0.04 0.04 0.03 0.04 0.06 0.08 0.08 0.10 0.11 0.12 0.11 0.10 0.10 0.08 0.07 0.08 0.08
0.24 0.31 0.39 0.33 0.17 0.10 0.05 0.01 0.00 0.00 0.00 0.01 0.01 0.00 0.01 0.02 0.02 0.03 0.02 0.03 0.06 0.08 0.10 0.14 0.15 0.18 0.21 0.16 0.13 0.13 0.10 0.11
0.02 0.04 0.10 0.16 0.08 0.03 0.01 0.00 0.00 0.00 0.00 0.00 0.00 0.00 0.00 0.01 0.01 0.01 0.01 0.01 0.02 0.09 0.13 0.16 0.19 0.17 0.36 0.30 0.25 0.24 0.27 0.36
0.03 0.03 0.04 0.04 0.02 0.01 0.01 0.00 0.00 0.00 0.00 0.00 0.00 0.00 0.00 0.00 0.00 0.01 0.01 0.05 0.11 0.18 0.33 0.36 0.24 0.18 0.33 0.32 0.29 0.22 0.23 0.31
0.02 0.02 0.03 0.02 0.01 0.00 0.00 0.00 0.00 0.00 0.00 0.00 0.00 0.00 0.00 0.00 0.00 0.02 0.03 0.05 0.09 0.21 0.36 0.45 0.50 0.47 0.43 0.42 0.48 0.43 0.40 0.33

GFSFLT1_prec_precacc12_126.txt.gz
Total_Precipitation_Accumulation
0.00 0.00 0.00 0.00 0.00 0.00 0.00 0.00 0.00 0.01 0.07 0.09 0.09 0.10 0.12 0.02 0.00 0.00 0.00 0.01 0.00 0.00 0.00 0.00 0.01 0.02 0.01 0.01 0.01 0.01 0.01 0.01
0.00 0.00 0.00 0.00 0.00 0.00 0.00 0.00 0.00 0.03 0.10 0.11 0.12 0.12 0.11 0.05 0.00 0.00 0.00 0.00 0.00 0.00 0.00 0.00 0.00 0.01 0.01 0.00 0.01 0.01 0.01 0.02
0.00 0.00 0.00 0.00 0.00 0.00 0.00 0.01 0.00 0.00 0.02 0.14 0.20 0.21 0.14 0.07 0.00 0.00 0.00 0.00 0.00 0.00 0.00 0.00 0.00 0.00 0.01 0.01 0.01 0.01 0.02 0.01
0.00 0.00 0.00 0.00 0.00 0.00 0.00 0.01 0.01 0.05 0.13 0.14 0.19 0.25 0.21 0.15 0.03 0.00 0.00 0.00 0.00 0.00 0.00 0.00 0.00 0.00 0.00 0.00 0.01 0.00 0.01 0.01
0.01 0.00 0.00 0.00 0.00 0.00 0.00 0.00 0.04 0.15 0.22 0.05 0.19 0.14 0.11 0.08 0.04 0.00 0.02 0.00 0.00 0.00 0.00 0.00 0.00 0.00 0.00 0.00 0.00 0.01 0.01 0.01
0.04 0.02 0.01 0.01 0.00 0.00 0.00 0.00 0.04 0.11 0.14 0.08 0.17 0.20 0.12 0.09 0.04 0.01 0.02 0.02 0.00 0.00 0.00 0.01 0.00 0.00 0.00 0.00 0.00 0.01 0.01 0.01
0.10 0.10 0.08 0.06 0.04 0.03 0.01 0.01 0.03 0.16 0.21 0.28 0.35 0.43 0.32 0.17 0.08 0.02 0.00 0.01 0.01 0.00 0.00 0.01 0.00 0.00 0.00 0.00 0.00 0.01 0.01 0.01
0.14 0.19 0.26 0.24 0.19 0.14 0.08 0.04 0.09 0.17 0.34 0.42 0.40 0.73 1.00 0.90 0.55 0.20 0.07 0.07 0.02 0.01 0.01 0.01 0.01 0.01 0.00 0.01 0.01 0.01 0.02 0.02
0.26 0.58 0.37 0.28 0.30 0.36 0.27 0.14 0.18 0.22 0.31 0.42 0.44 0.49 0.69 1.26 1.41 1.32 0.83 0.28 0.13 0.06 0.11 0.11 0.09 0.06 0.06 0.05 0.04 0.04 0.04 0.04
0.44 0.52 0.29 0.26 0.71 0.96 0.55 0.39 0.28 0.28 0.26 0.29 0.39 0.42 0.55 0.92 1.12 1.37 1.26 1.22 0.58 0.27 0.29 0.21 0.16 0.24 0.25 0.21 0.08 0.09 0.08 0.07
0.42 0.70 0.28 0.28 1.04 0.80 0.50 0.49 0.38 0.33 0.29 0.24 0.26 0.28 0.43 0.70 1.03 1.71 0.91 0.57 1.10 0.71 0.48 0.38 0.26 0.37 0.46 0.32 0.26 0.23 0.20 0.14
0.42 0.59 0.35 0.26 0.55 0.82 0.59 0.46 0.46 0.34 0.20 0.26 0.22 0.28 0.40 0.53 0.54 0.76 1.25 0.57 0.34 0.34 0.40 0.42 0.28 0.24 0.39 0.38 0.29 0.23 0.21 0.20
0.59 0.47 0.48 0.35 0.26 0.30 0.52 0.53 0.42 0.42 0.15 0.23 0.24 0.23 0.38 0.37 0.35 0.34 0.32 0.41 0.43 0.31 0.25 0.25 0.21 0.14 0.17 0.20 0.22 0.20 0.17 0.13
0.81 0.60 0.43 0.50 0.30 0.43 0.53 0.33 0.36 0.42 0.22 0.24 0.26 0.34 0.14 0.27 0.30 0.21 0.14 0.18 0.20 0.18 0.21 0.18 0.15 0.15 0.16 0.17 0.13 0.12 0.13 0.12
0.69 0.65 0.58 0.41 0.30 0.39 0.20 0.09 0.09 0.16 0.28 0.30 0.37 0.26 0.19 0.19 0.25 0.25 0.17 0.12 0.11 0.10 0.08 0.10 0.13 0.13 0.15 0.13 0.13 0.11 0.11 0.12
0.27 0.36 0.46 0.42 0.25 0.18 0.12 0.04 0.01 0.03 0.07 0.10 0.18 0.23 0.16 0.17 0.16 0.15 0.14 0.11 0.08 0.07 0.08 0.09 0.10 0.13 0.18 0.17 0.15 0.14 0.12 0.14
0.02 0.05 0.12 0.18 0.09 0.04 0.01 0.01 0.00 0.00 0.00 0.01 0.02 0.03 0.02 0.02 0.03 0.02 0.02 0.02 0.02 0.02 0.02 0.03 0.05 0.07 0.23 0.19 0.23 0.24 0.27 0.36
0.02 0.03 0.03 0.04 0.03 0.01 0.01 0.00 0.00 0.00 0.00 0.00 0.00 0.00 0.00 0.00 0.00 0.01 0.00 0.00 0.00 0.00 0.01 0.02 0.01 0.04 0.18 0.15 0.22 0.21 0.22 0.30
0.01 0.02 0.02 0.01 0.01 0.00 0.00 0.00 0.00 0.00 0.00 0.00 0.00 0.00 0.00 0.00 0.00 0.00 0.01 0.01 0.01 0.01 0.02 0.05 0.08 0.15 0.25 0.27 0.41 0.42 0.39 0.31

GFSFLT1_prec_precacc12_132.txt.gz
Total_Precipitation_Accumulation
0.00 0.00 0.00 0.00 0.00 0.00 0.00 0.00 0.00 0.01 0.07 0.09 0.08 0.11 0.21 0.27 0.17 0.17 0.17 0.27 0.24 0.08 0.01 0.01 0.02 0.02 0.01 0.01 0.02 0.02 0.01 0.01
0.00 0.00 0.00 0.00 0.00 0.00 0.00 0.00 0.00 0.02 0.10 0.11 0.12 0.11 0.13 0.16 0.15 0.14 0.22 0.32 0.37 0.22 0.05 0.02 0.02 0.01 0.01 0.00 0.02 0.02 0.02 0.02
0.00 0.00 0.00 0.00 0.00 0.00 0.00 0.00 0.00 0.00 0.02 0.07 0.14 0.19 0.17 0.15 0.18 0.17 0.25 0.30 0.36 0.31 0.14 0.04 0.01 0.01 0.01 0.01 0.01 0.01 0.02 0.03
0.00 0.00 0.00 0.00 0.00 0.00 0.00 0.00 0.00 0.00 0.00 0.03 0.14 0.22 0.21 0.20 0.19 0.16 0.22 0.30 0.29 0.28 0.26 0.11 0.05 0.02 0.00 0.00 0.00 0.00 0.01 0.02
0.01 0.00 0.00 0.00 0.00 0.00 0.00 0.00 0.00 0.01 0.01 0.03 0.14 0.12 0.11 0.10 0.13 0.13 0.21 0.30 0.29 0.26 0.22 0.17 0.07 0.02 0.00 0.00 0.00 0.00 0.00 0.01
0.02 0.01 0.01 0.01 0.00 0.00 0.00 0.00 0.00 0.04 0.09 0.05 0.13 0.18 0.10 0.09 0.10 0.14 0.17 0.26 0.28 0.32 0.38 0.20 0.08 0.04 0.01 0.00 0.00 0.01 0.01 0.00
0.03 0.04 0.04 0.04 0.03 0.02 0.01 0.01 0.02 0.03 0.09 0.15 0.19 0.28 0.30 0.17 0.10 0.13 0.20 0.30 0.25 0.37 0.49 0.64 0.30 0.06 0.01 0.00 0.00 0.01 0.01 0.01
0.03 0.08 0.16 0.15 0.14 0.12 0.08 0.04 0.08 0.09 0.19 0.21 0.27 0.53 0.88 0.91 0.58 0.31 0.35 0.44 0.35 0.33 0.50 0.79 0.50 0.13 0.03 0.02 0.01 0.01 0.01 0.01
0.11 0.39 0.29 0.20 0.26 0.35 0.27 0.16 0.20 0.21 0.26 0.31 0.38 0.41 0.66 1.28 1.55 1.69 1.19 0.87 0.70 0.59 0.64 0.64 0.71 0.36 0.10 0.07 0.05 0.05 0.04 0.03
0.31 0.40 0.22 0.21 0.69 1.00 0.54 0.42 0.31 0.30 0.28 0.30 0.43 0.43 0.54 0.95 1.48 1.71 2.49 2.30 1.60 1.24 1.08 0.83 0.64 0.60 0.33 0.26 0.13 0.13 0.12 0.08
0.33 0.64 0.24 0.26 1.14 0.96 0.61 0.60 0.57 0.48 0.38 0.34 0.37 0.37 0.44 0.75 1.09 1.98 1.91 2.25 2.70 2.17 1.66 1.43 1.32 1.09 0.63 0.25 0.24 0.23 0.23 0.18
0.19 0.51 0.38 0.32 0.63 1.04 1.00 0.80 1.07 0.94 0.54 0.52 0.43 0.53 0.51 0.64 0.77 0.94 1.65 1.50 1.47 2.27 2.44 2.00 1.86 1.29 0.80 0.56 0.42 0.31 0.26 0.26
0.23 0.28 0.45 0.48 0.39 0.51 1.09 1.17 1.43 1.42 1.10 0.98 0.62 0.54 0.67 0.61 0.65 0.77 0.68 0.89 1.17 1.24 1.75 2.21 1.81 1.63 1.00 0.58 0.47 0.46 0.47 0.42
0.27 0.19 0.17 0.45 0.36 0.82 0.86 0.95 0.87 1.20 1.48 1.56 0.86 0.78 0.45 0.44 0.57 0.69 0.58 0.49 0.51 0.74 1.07 1.33 1.42 1.71 1.42 0.78 0.51 0.37 0.43 0.53
0.28 0.34 0.26 0.27 0.24 0.48 0.33 0.28 0.42 0.66 0.86 1.14 1.11 0.71 0.59 0.48 0.35 0.50 0.53 0.46 0.49 0.46 0.55 0.86 1.09 0.95 0.98 1.00 1.02 0.76 0.34 0.31
0.12 0.20 0.24 0.25 0.19 0.18 0.13 0.05 0.03 0.11 0.21 0.25 0.58 0.89 0.56 0.46 0.34 0.26 0.31 0.33 0.37 0.42 0.44 0.47 0.63 0.83 0.75 0.65 0.69 0.64 0.41 0.31
0.01 0.03 0.08 0.12 0.05 0.03 0.01 0.00 0.00 0.00 0.00 0.02 0.04 0.09 0.18 0.31 0.32 0.20 0.15 0.16 0.16 0.21 0.27 0.30 0.30 0.33 0.49 0.55 0.51 0.47 0.41 0.34
0.00 0.01 0.01 0.02 0.01 0.00 0.00 0.00 0.00 0.00 0.00 0.00 0.00 0.00 0.00 0.00 0.02 0.03 0.07 0.10 0.13 0.13 0.16 0.16 0.13 0.14 0.13 0.16 0.23 0.20 0.17 0.17
0.00 0.00 0.00 0.00 0.00 0.00 0.00 0.00 0.00 0.00 0.00 0.00 0.00 0.00 0.00 0.00 0.00 0.00 0.00 0.00 0.00 0.01 0.00 0.00 0.00 0.01 0.01 0.01 0.00 0.00 0.00 0.01

GFSFLT1_prec_precacc12_135.txt.gz
Total_Precipitation_Accumulation
0.00 0.00 0.00 0.00 0.00 0.00 0.00 0.00 0.00 0.00 0.03 0.08 0.08 0.11 0.21 0.27 0.17 0.17 0.17 0.28 0.35 0.31 0.24 0.18 0.10 0.06 0.04 0.05 0.05 0.02 0.01 0.01
0.00 0.00 0.00 0.00 0.00 0.00 0.00 0.00 0.00 0.00 0.01 0.06 0.11 0.11 0.13 0.16 0.15 0.14 0.22 0.32 0.40 0.39 0.36 0.29 0.16 0.06 0.02 0.05 0.08 0.06 0.02 0.03
0.00 0.00 0.00 0.00 0.00 0.00 0.00 0.00 0.00 0.00 0.00 0.03 0.11 0.19 0.17 0.15 0.18 0.17 0.25 0.30 0.39 0.40 0.37 0.34 0.22 0.08 0.07 0.08 0.05 0.03 0.04 0.06
0.00 0.00 0.00 0.00 0.00 0.00 0.00 0.00 0.00 0.00 0.00 0.01 0.07 0.21 0.21 0.20 0.19 0.16 0.22 0.30 0.32 0.33 0.40 0.36 0.43 0.32 0.10 0.05 0.04 0.04 0.03 0.05
0.00 0.00 0.00 0.00 0.00 0.00 0.00 0.00 0.00 0.00 0.00 0.01 0.08 0.10 0.11 0.10 0.13 0.13 0.21 0.30 0.29 0.29 0.29 0.52 0.50 0.54 0.18 0.07 0.07 0.06 0.06 0.03
0.00 0.00 0.00 0.00 0.00 0.00 0.00 0.00 0.00 0.00 0.00 0.01 0.07 0.12 0.10 0.09 0.10 0.14 0.17 0.26 0.28 0.32 0.40 0.30 0.65 0.93 0.63 0.19 0.12 0.09 0.05 0.03
0.00 0.00 0.00 0.00 0.00 0.00 0.00 0.00 0.00 0.00 0.00 0.02 0.09 0.12 0.15 0.09 0.09 0.13 0.19 0.30 0.25 0.37 0.50 0.70 0.60 0.67 0.87 0.38 0.16 0.13 0.07 0.06
0.00 0.01 0.02 0.04 0.03 0.02 0.02 0.02 0.01 0.01 0.02 0.03 0.09 0.20 0.30 0.40 0.28 0.21 0.33 0.41 0.34 0.32 0.50 0.82 0.95 0.75 0.81 0.79 0.39 0.17 0.11 0.07
0.01 0.05 0.07 0.07 0.09 0.14 0.13 0.11 0.10 0.07 0.05 0.06 0.07 0.14 0.29 0.83 0.88 1.02 1.10 0.85 0.69 0.58 0.62 0.63 0.76 0.62 0.69 0.71 0.64 0.28 0.13 0.09
0.05 0.14 0.10 0.09 0.39 0.74 0.34 0.31 0.22 0.15 0.12 0.08 0.10 0.16 0.28 0.54 1.27 1.41 2.36 2.29 1.59 1.22 1.05 0.79 0.61 0.62 0.67 0.72 0.62 0.53 0.22 0.11
0.09 0.22 0.11 0.16 0.86 0.87 0.48 0.45 0.48 0.38 0.23 0.19 0.18 0.18 0.24 0.40 0.78 1.88 1.89 2.26 2.69 2.15 1.63 1.39 1.26 1.12 0.84 0.60 0.55 0.62 0.38 0.23
0.06 0.27 0.22 0.22 0.52 0.94 0.86 0.68 0.98 0.91 0.50 0.47 0.36 0.40 0.32 0.30 0.46 0.87 1.66 1.50 1.45 2.24 2.39 1.95 1.83 1.31 1.03 0.98 0.70 0.46 0.34 0.23
0.08 0.16 0.30 0.37 0.31 0.45 0.88 0.90 1.22 1.35 1.16 1.03 0.66 0.62 0.62 0.59 0.68 0.81 0.73 0.90 1.15 1.20 1.72 2.18 1.79 1.65 1.21 0.97 0.90 0.93 0.82 0.62
0.07 0.08 0.10 0.38 0.31 0.77 0.77 0.80 0.62 0.95 1.56 1.79 1.04 1.03 0.62 0.76 0.95 1.03 0.75 0.57 0.54 0.73 1.03 1.29 1.40 1.73 1.56 1.32 1.09 0.84 0.82 0.77
0.11 0.12 0.12 0.15 0.17 0.44 0.31 0.27 0.38 0.62 0.90 1.44 1.51 1.28 1.33 0.98 0.78 0.92 0.99 0.64 0.59 0.50 0.56 0.86 1.14 1.19 1.45 1.58 1.67 1.38 1.06 0.82
0.03 0.06 0.08 0.10 0.09 0.10 0.10 0.04 0.03 0.10 0.21 0.29 0.81 1.49 1.28 1.15 0.96 0.78 0.63 0.58 0.68 0.51 0.47 0.48 0.66 0.98 1.13 1.19 1.27 1.41 1.40 1.35
0.00 0.01 0.02 0.02 0.01 0.01 0.01 0.00 0.00 0.00 0.00 0.02 0.04 0.11 0.30 0.53 0.60 0.50 0.22 0.25 0.22 0.22 0.28 0.31 0.33 0.43 0.68 0.85 1.02 1.02 0.93 0.91
0.00 0.00 0.00 0.01 0.01 0.00 0.00 0.00 0.00 0.00 0.00 0.00 0.00 0.00 0.00 0.00 0.03 0.04 0.08 0.10 0.13 0.13 0.17 0.17 0.18 0.24 0.23 0.28 0.49 0.64 0.68 0.66
0.00 0.00 0.00 0.00 0.00 0.00 0.00 0.00 0.00 0.00 0.00 0.00 0.00 0.00 0.00 0.00 0.00 0.00 0.00 0.00 0.00 0.01 0.01 0.01 0.02 0.02 0.02 0.02 0.02 0.04 0.06 0.06

GFSFLT1_prec_precacc12_138.txt.gz
Total_Precipitation_Accumulation
0.00 0.00 0.00 0.00 0.00 0.00 0.00 0.00 0.00 0.00 0.00 0.00 0.00 0.01 0.09 0.24 0.17 0.17 0.16 0.27 0.35 0.31 0.27 0.30 0.27 0.17 0.11 0.07 0.08 0.07 0.02 0.02
0.00 0.00 0.00 0.00 0.00 0.00 0.00 0.00 0.00 0.00 0.00 0.00 0.00 0.01 0.02 0.11 0.15 0.14 0.22 0.32 0.40 0.39 0.37 0.38 0.43 0.44 0.30 0.11 0.12 0.10 0.05 0.08
0.00 0.00 0.00 0.00 0.00 0.00 0.00 0.00 0.00 0.00 0.00 0.00 0.00 0.01 0.03 0.09 0.18 0.17 0.25 0.30 0.38 0.40 0.37 0.36 0.41 0.60 0.71 0.44 0.10 0.04 0.06 0.15
0.00 0.00 0.00 0.00 0.00 0.00 0.00 0.00 0.00 0.00 0.00 0.00 0.00 0.00 0.01 0.05 0.16 0.16 0.22 0.30 0.31 0.33 0.39 0.36 0.48 0.67 0.79 0.65 0.21 0.07 0.04 0.10
0.00 0.00 0.00 0.00 0.00 0.00 0.00 0.00 0.00 0.00 0.00 0.00 0.00 0.01 0.00 0.02 0.09 0.13 0.19 0.30 0.29 0.29 0.29 0.51 0.51 0.73 0.94 0.82 0.65 0.27 0.18 0.10
0.00 0.00 0.00 0.00 0.00 0.00 0.00 0.00 0.00 0.00 0.00 0.00 0.01 0.01 0.01 0.01 0.06 0.14 0.16 0.25 0.28 0.32 0.39 0.29 0.66 0.94 0.98 1.01 1.09 0.71 0.25 0.17
0.00 0.00 0.00 0.00 0.00 0.00 0.00 0.00 0.00 0.00 0.00 0.01 0.02 0.02 0.02 0.02 0.03 0.12 0.20 0.29 0.25 0.37 0.49 0.69 0.59 0.68 0.94 0.95 1.06 0.90 0.56 0.30
0.00 0.00 0.00 0.00 0.00 0.01 0.01 0.00 0.00 0.00 0.00 0.00 0.02 0.03 0.04 0.05 0.06 0.14 0.30 0.39 0.33 0.32 0.49 0.81 0.94 0.75 0.81 0.87 0.83 1.06 0.75 0.41
0.00 0.00 0.01 0.02 0.03 0.03 0.03 0.04 0.03 0.01 0.01 0.01 0.03 0.02 0.03 0.06 0.18 0.44 0.45 0.62 0.58 0.56 0.60 0.62 0.75 0.61 0.66 0.68 0.82 0.81 0.86 0.82
0.00 0.01 0.02 0.03 0.07 0.09 0.11 0.11 0.06 0.04 0.03 0.04 0.07 0.05 0.02 0.09 0.45 0.48 1.32 1.18 1.13 1.09 0.96 0.76 0.58 0.55 0.57 0.63 0.60 0.69 0.66 0.59
0.00 0.01 0.03 0.03 0.15 0.21 0.16 0.16 0.23 0.17 0.11 0.12 0.15 0.12 0.07 0.14 0.21 0.43 1.21 1.86 1.80 1.72 1.45 1.23 1.13 1.05 0.77 0.54 0.51 0.60 0.65 0.56
0.01 0.01 0.05 0.07 0.10 0.24 0.44 0.37 0.63 0.63 0.37 0.30 0.25 0.31 0.17 0.17 0.32 0.35 0.66 1.20 1.42 2.18 2.30 1.80 1.70 1.23 0.96 0.90 0.64 0.46 0.48 0.67
0.02 0.03 0.05 0.16 0.16 0.21 0.58 0.67 1.05 1.09 1.05 0.83 0.46 0.46 0.45 0.35 0.48 0.58 0.56 0.65 0.93 1.12 1.64 2.10 1.73 1.62 1.17 0.92 0.84 0.88 0.87 0.80
0.01 0.02 0.02 0.09 0.16 0.42 0.33 0.63 0.53 0.85 1.46 1.59 0.80 0.74 0.57 0.62 0.78 0.88 0.75 0.58 0.53 0.72 1.00 1.25 1.37 1.70 1.52 1.28 1.06 0.80 0.80 0.83
0.02 0.03 0.03 0.03 0.06 0.17 0.16 0.19 0.33 0.52 0.67 1.16 1.19 1.14 1.32 1.05 0.78 0.98 1.08 0.75 0.77 0.61 0.59 0.84 1.10 1.16 1.44 1.59 1.69 1.39 1.06 0.86
0.00 0.00 0.00 0.01 0.01 0.02 0.03 0.02 0.02 0.07 0.15 0.19 0.64 1.31 1.28 1.23 1.20 1.31 1.19 1.10 1.17 0.84 0.67 0.56 0.68 0.98 1.16 1.26 1.36 1.47 1.45 1.43
0.00 0.00 0.00 0.00 0.00 0.00 0.00 0.00 0.00 0.00 0.00 0.01 0.02 0.09 0.29 0.57 0.68 0.61 0.45 0.79 1.06 0.76 0.78 0.47 0.40 0.48 0.75 0.97 1.07 1.07 0.97 1.02
0.00 0.00 0.00 0.00 0.00 0.00 0.00 0.00 0.00 0.00 0.00 0.00 0.00 0.00 0.00 0.01 0.06 0.09 0.15 0.13 0.19 0.22 0.26 0.23 0.20 0.26 0.23 0.29 0.50 0.67 0.74 0.78
0.00 0.00 0.00 0.00 0.00 0.00 0.00 0.00 0.00 0.00 0.00 0.00 0.00 0.00 0.00 0.00 0.00 0.00 0.00 0.00 0.01 0.01 0.02 0.02 0.03 0.03 0.02 0.02 0.02 0.05 0.09 0.13

GFSFLT1_prec_precacc12_141.txt.gz
Total_Precipitation_Accumulation
0.00 0.00 0.00 0.00 0.00 0.00 0.00 0.00 0.00 0.00 0.00 0.00 0.00 0.00 0.00 0.00 0.03 0.09 0.16 0.27 0.34 0.31 0.27 0.30 0.26 0.18 0.20 0.34 0.31 0.20 0.07 0.03
0.00 0.00 0.00 0.00 0.00 0.00 0.00 0.00 0.00 0.00 0.00 0.00 0.00 0.00 0.00 0.00 0.02 0.04 0.16 0.32 0.39 0.39 0.37 0.38 0.42 0.44 0.37 0.33 0.40 0.48 0.22 0.12
0.00 0.00 0.00 0.00 0.00 0.00 0.00 0.00 0.00 0.00 0.00 0.00 0.00 0.00 0.00 0.00 0.00 0.02 0.10 0.27 0.38 0.40 0.38 0.36 0.41 0.60 0.72 0.76 0.71 0.65 0.31 0.23
0.00 0.00 0.00 0.00 0.00 0.00 0.00 0.00 0.00 0.00 0.00 0.00 0.00 0.00 0.00 0.00 0.00 0.00 0.03 0.16 0.30 0.33 0.40 0.37 0.48 0.67 0.79 0.75 0.81 0.84 0.84 0.67
0.00 0.00 0.00 0.00 0.00 0.00 0.00 0.00 0.00 0.00 0.00 0.00 0.00 0.01 0.01 0.00 0.00 0.00 0.01 0.09 0.23 0.29 0.29 0.51 0.51 0.73 0.95 0.85 0.75 0.64 0.74 0.65
0.00 0.00 0.00 0.00 0.00 0.00 0.00 0.00 0.00 0.00 0.00 0.00 0.01 0.01 0.01 0.01 0.01 0.00 0.00 0.03 0.15 0.31 0.39 0.29 0.66 0.94 0.98 1.01 1.13 0.99 0.70 0.60
0.00 0.00 0.00 0.00 0.00 0.00 0.00 0.00 0.00 0.00 0.00 0.01 0.02 0.03 0.03 0.02 0.01 0.01 0.00 0.01 0.09 0.33 0.49 0.69 0.59 0.68 0.94 0.95 1.06 0.98 0.98 0.84
0.00 0.00 0.00 0.00 0.00 0.00 0.00 0.00 0.00 0.00 0.00 0.00 0.02 0.03 0.05 0.05 0.04 0.03 0.02 0.02 0.05 0.23 0.49 0.82 0.94 0.75 0.81 0.87 0.82 1.06 0.88 0.78
0.00 0.00 0.00 0.00 0.00 0.01 0.01 0.02 0.02 0.01 0.00 0.01 0.01 0.02 0.04 0.04 0.05 0.05 0.04 0.03 0.05 0.31 0.53 0.57 0.75 0.61 0.65 0.68 0.81 0.80 0.85 0.88
0.00 0.00 0.00 0.00 0.01 0.03 0.08 0.07 0.03 0.02 0.02 0.02 0.03 0.02 0.02 0.05 0.04 0.06 0.05 0.05 0.06 0.22 0.71 0.65 0.58 0.54 0.55 0.58 0.57 0.65 0.62 0.59
0.00 0.00 0.00 0.00 0.03 0.05 0.04 0.04 0.04 0.04 0.05 0.05 0.06 0.04 0.05 0.07 0.05 0.06 0.08 0.10 0.11 0.26 1.02 1.02 0.94 0.89 0.65 0.48 0.47 0.57 0.62 0.52
0.00 0.00 0.00 0.00 0.01 0.02 0.03 0.13 0.15 0.12 0.13 0.11 0.10 0.21 0.15 0.11 0.12 0.16 0.22 0.22 0.25 0.41 1.32 1.43 1.42 0.95 0.74 0.69 0.50 0.37 0.44 0.64
0.00 0.00 0.00 0.00 0.01 0.04 0.05 0.10 0.23 0.43 0.41 0.28 0.26 0.41 0.41 0.25 0.31 0.28 0.28 0.28 0.25 0.39 1.06 1.31 0.94 1.26 1.01 0.80 0.77 0.76 0.71 0.62
0.00 0.00 0.00 0.00 0.00 0.03 0.06 0.13 0.20 0.45 1.03 1.04 0.61 0.67 0.53 0.62 0.68 0.57 0.50 0.43 0.34 0.33 0.70 0.96 0.94 1.45 1.43 1.17 0.99 0.79 0.76 0.72
0.00 0.00 0.00 0.00 0.00 0.00 0.01 0.04 0.12 0.33 0.54 1.10 1.13 1.08 1.26 1.07 0.80 0.91 1.07 0.82 0.72 0.58 0.48 0.68 0.94 1.11 1.42 1.54 1.62 1.36 1.06 0.83
0.00 0.00 0.00 0.00 0.00 0.00 0.00 0.00 0.00 0.04 0.11 0.16 0.59 1.20 1.14 1.13 1.12 1.30 1.25 1.32 1.46 1.13 0.96 0.65 0.64 0.97 1.20 1.25 1.49 1.57 1.54 1.53
0.00 0.00 0.00 0.00 0.00 0.00 0.00 0.00 0.00 0.00 0.00 0.00 0.01 0.07 0.18 0.34 0.43 0.46 0.40 0.80 1.12 0.91 1.10 0.69 0.66 0.61 0.89 1.25 1.44 1.50 1.33 1.24
0.00 0.00 0.00 0.00 0.00 0.00 0.00 0.00 0.00 0.00 0.00 0.00 0.00 0.00 0.00 0.00 0.04 0.06 0.12 0.11 0.20 0.27 0.39 0.34 0.28 0.28 0.25 0.39 0.68 0.97 1.15 1.15
0.00 0.00 0.00 0.00 0.00 0.00 0.00 0.00 0.00 0.00 0.00 0.00 0.00 0.00 0.00 0.00 0.00 0.00 0.00 0.00 0.01 0.03 0.07 0.08 0.06 0.03 0.02 0.02 0.03 0.06 0.11 0.16

GFSFLT1_prec_precacc12_144.txt.gz
Total_Precipitation_Accumulation
0.00 0.00 0.00 0.00 0.00 0.00 0.00 0.00 0.00 0.00 0.00 0.00 0.00 0.00 0.00 0.00 0.00 0.00 0.00 0.01 0.11 0.23 0.26 0.29 0.26 0.18 0.19 0.34 0.34 0.27 0.17 0.07
0.00 0.00 0.00 0.00 0.00 0.00 0.00 0.00 0.00 0.00 0.00 0.00 0.00 0.00 0.00 0.00 0.00 0.00 0.00 0.00 0.03 0.17 0.31 0.37 0.42 0.44 0.36 0.33 0.40 0.51 0.31 0.28
0.00 0.00 0.00 0.00 0.00 0.00 0.00 0.00 0.00 0.00 0.00 0.00 0.00 0.00 0.00 0.00 0.00 0.00 0.00 0.00 0.03 0.09 0.23 0.32 0.41 0.60 0.72 0.76 0.72 0.68 0.38 0.40
0.00 0.00 0.00 0.00 0.00 0.00 0.00 0.00 0.00 0.00 0.00 0.00 0.00 0.00 0.00 0.00 0.00 0.00 0.00 0.00 0.03 0.05 0.14 0.26 0.44 0.66 0.80 0.76 0.82 0.86 0.87 0.82
0.00 0.00 0.00 0.00 0.00 0.00 0.00 0.00 0.00 0.00 0.00 0.00 0.00 0.01 0.01 0.00 0.00 0.00 0.00 0.00 0.01 0.03 0.07 0.35 0.44 0.71 0.95 0.85 0.75 0.65 0.76 0.76
0.00 0.00 0.00 0.00 0.00 0.00 0.00 0.00 0.00 0.00 0.00 0.00 0.01 0.01 0.01 0.01 0.01 0.01 0.00 0.00 0.00 0.01 0.02 0.10 0.58 0.91 0.97 1.01 1.13 0.99 0.71 0.62
0.00 0.00 0.00 0.00 0.00 0.00 0.00 0.00 0.00 0.00 0.00 0.00 0.01 0.03 0.03 0.03 0.02 0.01 0.00 0.00 0.00 0.00 0.01 0.06 0.31 0.63 0.93 0.95 1.06 0.98 1.00 0.86
0.00 0.00 0.00 0.00 0.00 0.00 0.00 0.00 0.00 0.00 0.00 0.00 0.02 0.03 0.04 0.05 0.05 0.04 0.02 0.01 0.01 0.01 0.01 0.04 0.47 0.63 0.79 0.85 0.82 1.07 0.91 0.82
0.00 0.00 0.00 0.00 0.00 0.00 0.00 0.00 0.01 0.00 0.00 0.00 0.01 0.02 0.04 0.04 0.05 0.05 0.04 0.03 0.02 0.01 0.01 0.01 0.08 0.28 0.61 0.67 0.81 0.81 0.87 0.92
0.00 0.00 0.00 0.00 0.00 0.00 0.02 0.02 0.02 0.01 0.01 0.01 0.02 0.02 0.03 0.04 0.04 0.06 0.06 0.06 0.05 0.02 0.01 0.03 0.04 0.13 0.46 0.57 0.56 0.64 0.62 0.61
0.00 0.00 0.00 0.00 0.00 0.00 0.00 0.01 0.02 0.01 0.01 0.02 0.03 0.03 0.04 0.05 0.05 0.06 0.08 0.11 0.11 0.10 0.09 0.06 0.03 0.12 0.35 0.44 0.44 0.54 0.60 0.52
0.00 0.00 0.00 0.00 0.00 0.00 0.00 0.00 0.01 0.03 0.03 0.04 0.04 0.06 0.06 0.06 0.09 0.15 0.23 0.23 0.24 0.11 0.09 0.11 0.13 0.07 0.32 0.53 0.42 0.35 0.43 0.62
0.00 0.00 0.00 0.00 0.00 0.00 0.00 0.00 0.02 0.08 0.11 0.08 0.08 0.16 0.16 0.14 0.23 0.22 0.26 0.30 0.16 0.10 0.09 0.12 0.18 0.12 0.27 0.46 0.52 0.59 0.55 0.49
0.00 0.00 0.00 0.00 0.00 0.00 0.00 0.00 0.01 0.05 0.20 0.26 0.20 0.30 0.28 0.50 0.60 0.53 0.52 0.46 0.34 0.25 0.17 0.13 0.12 0.13 0.20 0.62 0.63 0.53 0.50 0.41
0.00 0.00 0.00 0.00 0.00 0.00 0.00 0.00 0.00 0.02 0.09 0.32 0.45 0.69 0.94 0.80 0.74 0.87 0.98 0.78 0.67 0.61 0.47 0.37 0.33 0.44 0.62 0.71 0.77 0.76 0.87 0.69
0.00 0.00 0.00 0.00 0.00 0.00 0.00 0.00 0.00 0.00 0.00 0.04 0.24 0.65 0.88 0.95 1.05 1.28 1.21 1.28 1.37 1.05 0.88 0.53 0.34 0.48 0.80 0.90 1.00 1.08 1.25 1.35
0.00 0.00 0.00 0.00 0.00 0.00 0.00 0.00 0.00 0.00 0.00 0.00 0.00 0.02 0.13 0.28 0.40 0.45 0.38 0.77 1.06 0.80 0.94 0.49 0.47 0.42 0.57 0.87 1.12 1.29 1.18 1.10
0.00 0.00 0.00 0.00 0.00 0.00 0.00 0.00 0.00 0.00 0.00 0.00 0.00 0.00 0.00 0.00 0.04 0.06 0.09 0.05 0.11 0.18 0.28 0.23 0.20 0.17 0.16 0.27 0.53 0.90 1.20 1.31
0.00 0.00 0.00 0.00 0.00 0.00 0.00 0.00 0.00 0.00 0.00 0.00 0.00 0.00 0.00 0.00 0.00 0.00 0.00 0.00 0.01 0.03 0.08 0.08 0.05 0.03 0.02 0.02 0.06 0.12 0.19 0.25

GFSFLT1_prec_precacc12_147.txt.gz
Total_Precipitation_Accumulation
0.00 0.00 0.00 0.00 0.00 0.00 0.00 0.00 0.00 0.00 0.00 0.00 0.00 0.00 0.00 0.00 0.00 0.00 0.00 0.00 0.00 0.00 0.03 0.12 0.18 0.13 0.16 0.31 0.30 0.26 0.19 0.08
0.00 0.00 0.00 0.00 0.00 0.00 0.00 0.00 0.00 0.00 0.00 0.00 0.00 0.00 0.00 0.00 0.00 0.00 0.00 0.00 0.00 0.00 0.01 0.10 0.28 0.39 0.35 0.28 0.33 0.48 0.30 0.29
0.00 0.00 0.00 0.00 0.00 0.00 0.00 0.00 0.00 0.00 0.00 0.00 0.00 0.00 0.00 0.00 0.00 0.00 0.00 0.00 0.00 0.00 0.01 0.02 0.20 0.53 0.66 0.69 0.68 0.66 0.36 0.38
0.00 0.00 0.00 0.00 0.00 0.00 0.00 0.00 0.00 0.00 0.00 0.00 0.00 0.00 0.00 0.00 0.00 0.00 0.00 0.00 0.00 0.01 0.01 0.02 0.06 0.36 0.71 0.71 0.78 0.82 0.86 0.79
0.00 0.00 0.00 0.00 0.00 0.00 0.00 0.00 0.00 0.00 0.00 0.00 0.00 0.00 0.00 0.00 0.00 0.00 0.00 0.00 0.00 0.00 0.01 0.01 0.02 0.20 0.78 0.79 0.69 0.60 0.71 0.75
0.00 0.00 0.00 0.00 0.00 0.00 0.00 0.00 0.00 0.00 0.00 0.00 0.00 0.01 0.01 0.01 0.01 0.01 0.00 0.00 0.00 0.00 0.01 0.01 0.01 0.03 0.36 0.83 1.02 0.91 0.68 0.61
0.00 0.00 0.00 0.00 0.00 0.00 0.00 0.00 0.00 0.00 0.00 0.00 0.01 0.01 0.02 0.02 0.02 0.01 0.00 0.00 0.00 0.00 0.01 0.01 0.01 0.02 0.08 0.58 0.91 0.86 0.93 0.80
0.00 0.00 0.00 0.00 0.00 0.00 0.00 0.00 0.00 0.00 0.00 0.00 0.01 0.02 0.02 0.03 0.03 0.03 0.02 0.02 0.01 0.01 0.01 0.01 0.01 0.01 0.01 0.10 0.45 0.91 0.82 0.77
0.00 0.00 0.00 0.00 0.00 0.00 0.00 0.00 0.00 0.00 0.00 0.00 0.01 0.02 0.02 0.03 0.04 0.04 0.05 0.04 0.03 0.02 0.01 0.01 0.02 0.01 0.01 0.01 0.22 0.58 0.78 0.89
0.00 0.00 0.00 0.00 0.00 0.00 0.00 0.00 0.00 0.00 0.00 0.01 0.01 0.01 0.02 0.03 0.02 0.03 0.04 0.06 0.06 0.03 0.02 0.03 0.03 0.03 0.02 0.03 0.06 0.23 0.51 0.60
0.00 0.00 0.00 0.00 0.00 0.00 0.00 0.00 0.00 0.00 0.00 0.01 0.02 0.02 0.03 0.03 0.02 0.03 0.05 0.08 0.11 0.11 0.10 0.07 0.04 0.02 0.02 0.01 0.02 0.05 0.38 0.46
0.00 0.00 0.00 0.00 0.00 0.00 0.00 0.00 0.00 0.00 0.01 0.02 0.03 0.04 0.05 0.03 0.04 0.09 0.18 0.20 0.24 0.12 0.11 0.12 0.17 0.12 0.07 0.03 0.02 0.09 0.27 0.56
0.00 0.00 0.00 0.00 0.00 0.00 0.00 0.00 0.00 0.00 0.01 0.02 0.04 0.05 0.06 0.06 0.10 0.13 0.19 0.27 0.16 0.13 0.12 0.15 0.25 0.30 0.14 0.08 0.03 0.06 0.18 0.31
0.00 0.00 0.00 0.00 0.00 0.00 0.00 0.00 0.00 0.00 0.00 0.02 0.02 0.05 0.09 0.17 0.22 0.19 0.36 0.42 0.36 0.30 0.22 0.19 0.18 0.24 0.20 0.26 0.09 0.05 0.14 0.16
0.00 0.00 0.00 0.00 0.00 0.00 0.00 0.00 0.00 0.00 0.00 0.00 0.04 0.12 0.20 0.29 0.32 0.45 0.52 0.60 0.58 0.61 0.56 0.45 0.33 0.24 0.19 0.21 0.18 0.16 0.12 0.14
0.00 0.00 0.00 0.00 0.00 0.00 0.00 0.00 0.00 0.00 0.00 0.00 0.00 0.05 0.16 0.26 0.42 0.76 0.89 1.03 1.06 0.97 0.87 0.57 0.37 0.38 0.55 0.43 0.46 0.35 0.26 0.29
0.00 0.00 0.00 0.00 0.00 0.00 0.00 0.00 0.00 0.00 0.00 0.00 0.00 0.00 0.01 0.06 0.12 0.16 0.31 0.68 0.99 0.79 0.93 0.48 0.46 0.32 0.39 0.60 0.63 0.76 0.69 0.56
0.00 0.00 0.00 0.00 0.00 0.00 0.00 0.00 0.00 0.00 0.00 0.00 0.00 0.00 0.00 0.00 0.02 0.05 0.08 0.05 0.11 0.17 0.27 0.22 0.15 0.08 0.06 0.15 0.26 0.45 0.68 0.81
0.00 0.00 0.00 0.00 0.00 0.00 0.00 0.00 0.00 0.00 0.00 0.00 0.00 0.00 0.00 0.00 0.00 0.00 0.00 0.00 0.01 0.03 0.07 0.08 0.04 0.01 0.01 0.01 0.05 0.08 0.13 0.21